Weather History for Quincy, IL

Change the Weather History Date:

Friday, October 21, 2011

  Actual Average Record
Temperature  
Mean Temperature 46 °F 53 °F  
Max Temperature 60 °F 63 °F 86 °F (1979)
Min Temperature 34 °F 43 °F 24 °F (1952)
Degree Days  
Heating Degree Days 18 12  
Month to date heating degree days 197  
Since 1 July heating degree days 284  
Cooling Degree Days 0 0  
Month to date cooling degree days 14  
Year to date cooling degree days 1090  
Moisture  
Dew Point 29 °F    
Average Humidity 53    
Maximum Humidity 79    
Minimum Humidity 31    
Precipitation  
Precipitation 0.00 in 0.09 in 2.68 in (1983)
Month to date precipitation 2.05  
Year to date precipitation 31.10  
Sea Level Pressure  
Sea Level Pressure 30.11 in    
Wind  
Wind Speed 6 mph (WSW)    
Max Wind Speed 8 mph    
Max Gust Speed 17 mph    
Visibility 10 miles    
Events      
T = Trace of Precipitation, MM = Missing Value Source: NWS Daily Summary

Daily Weather History Graph

Daily Weather History Graph

Search for Another Location

Airport:

Trip Planner

Search our weather history database for the weather conditions in past years. The results will help you decide how hot, cold, wet, or windy it might be!

Date:

Astronomy

Oct. 21, 2011 Rise Set
Actual Time 7:21 AM CDT 6:16 PM CDT
Civil Twilight 6:53 AM CDT 6:44 PM CDT
Nautical Twilight 6:22 AM CDT 7:15 PM CDT
Astronomical Twilight 5:50 AM CDT 7:47 PM CDT
Moon 1:11 AM CDT (10/21) 3:01 PM CDT (10/21)
Length of Visible Light 11h 50m
Length of Day
10h 55m
Waning Crescent, 33% of the Moon is Illuminated
Oct 21
Waning Crescent
Oct 26
New
Nov 2
First Quarter
Nov 10
Full
Nov 18
Last Quarter

Hourly Weather History & Observations

Time (CDT) Temp. Windchill Dew Point Humidity Pressure Visibility Wind Dir Wind Speed Gust Speed Precip Events Conditions
12:54 AM 41.0 °F 37.1 °F 28.9 °F 62% 30.03 in 10.0 mi West 5.8 mph - N/A   Clear
1:54 AM 39.9 °F 35.1 °F 28.9 °F 65% 30.04 in 10.0 mi West 6.9 mph - N/A   Clear
2:54 AM 39.0 °F 34.0 °F 28.9 °F 67% 30.06 in 10.0 mi West 6.9 mph - N/A   Clear
3:54 AM 37.0 °F 31.6 °F 28.9 °F 73% 30.06 in 10.0 mi West 6.9 mph - N/A   Clear
4:54 AM 36.0 °F 29.6 °F 28.0 °F 73% 30.08 in 10.0 mi West 8.1 mph - N/A   Clear
5:54 AM 35.1 °F 31.0 °F 28.0 °F 76% 30.10 in 10.0 mi West 4.6 mph - N/A   Clear
6:54 AM 35.1 °F 31.0 °F 28.0 °F 76% 30.12 in 10.0 mi West 4.6 mph - N/A   Clear
7:54 AM 34.0 °F - 28.0 °F 79% 30.13 in 10.0 mi Calm Calm - N/A   Clear
8:54 AM 39.9 °F 35.1 °F 30.9 °F 70% 30.15 in 10.0 mi WNW 6.9 mph - N/A   Clear
9:54 AM 46.0 °F 42.5 °F 32.0 °F 58% 30.17 in 10.0 mi WNW 6.9 mph - N/A   Clear
10:54 AM 51.1 °F - 32.0 °F 48% 30.17 in 10.0 mi West 8.1 mph - N/A   Clear
11:54 AM 54.0 °F - 30.9 °F 41% 30.16 in 10.0 mi WNW 8.1 mph 17.3 mph N/A   Clear
12:54 PM 55.9 °F - 30.9 °F 39% 30.14 in 10.0 mi NW 6.9 mph - N/A   Clear
1:54 PM 59.0 °F - 32.0 °F 36% 30.11 in 10.0 mi West 8.1 mph - N/A   Clear
2:54 PM 59.0 °F - 28.9 °F 32% 30.10 in 10.0 mi WSW 8.1 mph - N/A   Clear
3:54 PM 59.0 °F - 30.0 °F 33% 30.11 in 10.0 mi WSW 5.8 mph - N/A   Clear
4:54 PM 59.0 °F - 28.0 °F 31% 30.10 in 10.0 mi WSW 5.8 mph - N/A   Clear
5:54 PM 57.0 °F - 28.9 °F 34% 30.10 in 10.0 mi WSW 3.5 mph - N/A   Clear
6:54 PM 53.1 °F - 28.9 °F 40% 30.11 in 10.0 mi SSW 3.5 mph - N/A   Clear
7:54 PM 51.1 °F - 28.9 °F 43% 30.12 in 10.0 mi South 3.5 mph - N/A   Clear
8:54 PM 48.9 °F - 28.9 °F 46% 30.11 in 10.0 mi South 4.6 mph - N/A   Clear
9:54 PM 48.0 °F - 28.9 °F 48% 30.11 in 10.0 mi South 4.6 mph - N/A   Clear
10:54 PM 48.0 °F - 30.0 °F 50% 30.10 in 10.0 mi South 5.8 mph - N/A   Clear
11:54 PM 48.0 °F - 30.0 °F 50% 30.09 in 10.0 mi South 4.6 mph - N/A   Clear